Regional Weather Roundup
Issued by NWS

Home | Current Version | Previous Version | Graphics & Text | Print | Product List | Glossary On
Versions: 1 2 3 4 5 6 7 8 9 10 11 12 13 14 15 16 17 18 19 20 21 22 23 24 25 26 27 28 29 30 31 32 33 34 35 36 37 38 39 40 41 42 43 44 45 46 47 48 49 50
000
ASUS45 KPSR 050800
RWRAZ

ARIZONA REGIONAL HOURLY WEATHER ROUNDUP
NATIONAL WEATHER SERVICE PHOENIX AZ
100 AM MST TUE MAY 05 2015

NOTE: FAIR INDICATES FEW OR NO CLOUDS BELOW 12,000 FEET WITH NO
SIGNIFICANT WEATHER AND/OR OBSTRUCTIONS TO VISIBILITY.

AZZ001>003-036-050900-
NORTHWEST ARIZONA

CITY           SKY/WX    TMP DP  RH WIND       PRES   REMARKS
KINGMAN        CLOUDY    56  48  74 CALM      29.95R
$$

AZZ004>008-015-016-018-050900-
NORTH CENTRAL ARIZONA

CITY           SKY/WX    TMP DP  RH WIND       PRES   REMARKS
GRAND CANYON   PTCLDY    37  36  96 CALM      30.00F
WILLIAMS       CLOUDY    45  43  93 CALM      30.08F
PRESCOTT       CLOUDY    51  43  74 SW8       29.99S
FLAGSTAFF      NOT AVBL
PAYSON         CLOUDY    52  46  82 CALM      30.02S
PAGE           LGT RAIN  56  50  80 SW6       29.90F
$$

AZZ009>014-017-050900-
NORTHEAST ARIZONA

CITY           SKY/WX    TMP DP  RH WIND       PRES   REMARKS
WINSLOW        NOT AVBL
SAINT JOHNS    CLOUDY    47  43  86 SW3       29.98F
WINDOW ROCK    CLOUDY    46  41  82 SW6       30.01F
SHOW LOW       CLOUDY    41  39  93 S10       30.03F
$$

AZZ023-050900-
GREATER PHOENIX AREA

CITY           SKY/WX    TMP DP  RH WIND       PRES   REMARKS
PHOENIX        MOCLDY    68  54  60 SE6       29.88R
DEER VALLEY    CLOUDY    67  50  54 S7        29.88R
SCOTTSDALE     MOCLDY    67  52  58 S3        29.90F
$$

AZZ027-028-050900-
SOUTHWEST MARICOPA COUNTY AND PINAL COUNTY

CITY           SKY/WX    TMP DP  RH WIND       PRES   REMARKS
CASA GRANDE    MOCLDY    64  54  68 CALM      29.89S
$$

AZZ503-504-507>509-050900-
SOUTHEAST ARIZONA

CITY           SKY/WX    TMP DP  RH WIND       PRES   REMARKS
TUCSON         CLOUDY    61  54  77 SE7       29.97F
NOGALES        MOCLDY    59  47  64 CALM      30.00F
SIERRA VISTA   PTCLDY    52  48  87 W8        30.03F
SAFFORD        CLOUDY    58  48  69 NW7       29.93F
$$

AZZ020-021-025-026-031-050900-
SOUTHWEST ARIZONA

CITY           SKY/WX    TMP DP  RH WIND       PRES   REMARKS
YUMA           NOT AVBL
$$

CAZ031-033-041-043-047-048-061-050900-
SOUTHERN CALIFORNIA

CITY           SKY/WX    TMP DP  RH WIND       PRES   REMARKS
DOWNTOWN L.A.  CLOUDY    58  50  75 CALM      29.99F
L.A. AIRPORT   MOCLDY    57  52  83 W5        30.00F
SAN DIEGO      CLOUDY    62  48  60 W5        30.03S
BURBANK        CLOUDY    56  47  71 SE6       29.99S
ONTARIO        PTCLDY    55  49  80 W7        30.00S
RIVERSIDE      CLEAR     54  49  83 W5        30.00S
PALM SPRINGS   CLEAR     70  44  39 S6        29.85R
EL CENTRO NAS  CLEAR     69  46  43 S13       29.86S
IMPERIAL       CLEAR     67  46  47 S8        29.84S
BLYTHE         MOCLDY    65  60  84 CALM      29.84S
$$

NVZ020-UTZ003-050900-
SOUTHERN NEVADA-UTAH

CITY           SKY/WX    TMP DP  RH WIND       PRES   REMARKS
LAS VEGAS      NOT AVBL
SALT LAKE CITY PTCLDY    59  45  59 SE3       29.87F
$$

NMZ009-TXZ055-050900-
NEW MEXICO-WEST TEXAS

CITY           SKY/WX    TMP DP  RH WIND       PRES   REMARKS
ALBUQUERQUE    MOCLDY    54  49  83 N6        29.96F
EL PASO        PTCLDY    68  42  38 W12       29.88F
$$


........................KEY........................
SKY/WX - SKY CONDITION/WEATHER
TMP    - TEMPERATURE IN FAHRENHEIT
DP     - DEW POINT IN FAHRENHEIT
RH     - RELATIVE HUMIDITY IN PERCENT
WIND   - DIRECTION AND SPEED IN MILES PER HOUR (MPH)
VRB    - VARIABLE WIND DIRECTION
PRES   - MEAN SEA LEVEL PRESSURE IN INCHES OF MERCURY
         F - FALLING PRESSURE   R - RISING PRESSURE
         S - STEADY PRESSURE
VSB    - VISIBILITY IN MILES
HX     - HEAT INDEX IN FAHRENHEIT
WCI    - WIND CHILL INDEX IN FAHRENHEIT
TC     - TEMPERATURE IN CELSIUS WHICH IS ALSO KNOWN AS
         TEMPERATURE IN CENTIGRADE
AFB    - AIR FORCE BASE
         LUKE AFB IS LUKE AIR FORCE BASE
         DAVIS-MONTHAN IS DAVIS-MONTHAN AIR FORCE BASE
NAS    - NAVAL AIR STATION
         EL CENTRO NAS IS EL CENTRO NAVAL AIR STATION
N/A    - NOT AVAILABLE



USA.gov is the U.S. government's official web portal to all federal, state and local government web resources and services.